This is the latest recevied weather packets stored in our database for station/object JE7UPL-13. If no packets are shown the sender has not sent any weather packets the latest 10 day(s).
| Time | Temp. | Humidity | Pressure | Rain* | Wind** | Luminosity | Snow |
|---|---|---|---|---|---|---|---|
| 1777476605 | 6.67° C | 81% | 1016.4 hPa | 0 mm | - | - | - |
| 1777475705 | 7.22° C | 80% | 1016.3 hPa | 0 mm | - | - | - |
| 1777474810 | 7.22° C | 80% | 1016.3 hPa | 0 mm | - | - | - |
| 1777473906 | 7.22° C | 79% | 1016.4 hPa | 0 mm | - | - | - |
| 1777473005 | 7.78° C | 77% | 1016.2 hPa | 0 mm | - | - | - |
| 1777472105 | 7.78° C | 74% | 1016.3 hPa | 0 mm | - | - | - |
| 1777471206 | 8.33° C | 73% | 1016.2 hPa | 0 mm | - | - | - |
| 1777470306 | 8.33° C | 73% | 1016.2 hPa | 0 mm | - | - | - |
| 1777469406 | 8.89° C | 73% | 1016 hPa | 0 mm | - | - | - |
| 1777468505 | 8.89° C | 72% | 1015.9 hPa | 0 mm | - | - | - |
| 1777467606 | 8.89° C | 72% | 1015.8 hPa | 0 mm | - | - | - |
| 1777466705 | 8.89° C | 73% | 1015.6 hPa | 0 mm | - | - | - |
| 1777465806 | 8.89° C | 75% | 1015.5 hPa | 0 mm | - | - | - |
| 1777464904 | 8.89° C | 75% | 1015.5 hPa | 0 mm | - | - | - |
| 1777464004 | 8.89° C | 76% | 1015.3 hPa | 0 mm | - | - | - |
| 1777463105 | 8.89° C | 76% | 1015 hPa | 0 mm | - | - | - |
| 1777462205 | 8.33° C | 75% | 1014.9 hPa | 0 mm | - | - | - |
| 1777461304 | 8.89° C | 74% | 1014.5 hPa | 0 mm | - | - | - |
| 1777460405 | 8.89° C | 72% | 1014.5 hPa | 0 mm | - | - | - |
| 1777459504 | 9.44° C | 71% | 1014.1 hPa | 0 mm | - | - | - |
| 1777458605 | 10° C | 68% | 1013.9 hPa | 0 mm | - | - | - |
| 1777457704 | 10° C | 67% | 1013.5 hPa | 0 mm | - | - | - |
| 1777456805 | 10.56° C | 63% | 1013.1 hPa | 0 mm | - | - | - |
| 1777455905 | 11.11° C | 62% | 1012.8 hPa | 0 mm | - | - | - |
| 1777455005 | 11.11° C | 60% | 1012.4 hPa | 0 mm | - | - | - |
* Rain latest hour (hover to see other rain measurements)
** Current wind speed in m/s (hover to see current wind gust speed)